Location: Clover
(42.5131°N, 114.6874°W)
Time: 08:52:20
(UTC+00:00)

Explorer 11/Cluster Stage 4 - Visible Passes

Search period start: 16 December 2025 00:00
Search period end: 26 December 2025 00:00
Orbit: 463 x 1181 km, 28.8° (Epoch: 15 December)

Date Brightness Start Highest point End Pass type
(mag) Time Alt. Az. Time Alt. Az. Time Alt. Az.
16 Dec 8.9 01:42:17 10° SW 01:48:01 23° S 01:52:36 13° SE visible
16 Dec 8.8 03:29:29 10° WSW 03:33:53 24° SSW 03:33:53 24° SSW visible
17 Dec 8.9 01:18:12 10° SW 01:24:05 24° S 01:29:41 10° ESE visible
17 Dec 8.5 03:05:22 10° WSW 03:11:23 26° S 03:11:38 26° S visible
18 Dec 9.0 00:54:09 10° SW 01:00:08 24° S 01:05:56 10° ESE visible
18 Dec 8.5 02:41:17 10° WSW 02:47:29 27° S 02:49:25 24° SSE visible
18 Dec 9.6 04:29:53 10° WSW 04:30:41 12° SW 04:30:41 12° SW visible
19 Dec 9.0 00:30:09 10° SW 00:36:11 25° S 00:42:07 10° ESE visible
19 Dec 8.7 02:17:14 10° WSW 02:23:33 28° S 02:27:13 19° SE visible
19 Dec 9.3 04:05:46 10° WSW 04:08:30 17° SW 04:08:30 17° SW visible
20 Dec 8.8 01:53:13 10° WSW 01:59:35 28° S 02:05:05 12° SE visible
20 Dec 9.1 03:41:40 10° WSW 03:46:22 19° SSW 03:46:22 19° SSW visible
21 Dec 8.9 01:29:14 10° WSW 01:35:37 28° S 01:41:52 10° SE visible
21 Dec 9.0 03:17:36 10° WSW 03:22:51 20° SSW 03:24:19 19° S visible
22 Dec 9.0 01:05:18 10° WSW 01:11:38 28° S 01:17:58 10° SE visible
22 Dec 9.1 02:53:35 10° WSW 02:58:54 20° SSW 03:02:20 15° SSE visible
23 Dec 9.0 00:41:25 10° WSW 00:47:39 28° S 00:54:01 10° SE visible
23 Dec 9.3 02:29:36 10° WSW 02:34:56 20° SSW 02:40:09 10° SSE visible
24 Dec 9.4 02:05:41 10° WSW 02:10:58 20° SSW 02:16:13 10° SSE visible
25 Dec 9.5 01:41:49 10° WSW 01:47:00 20° SSW 01:52:14 10° SSE visible
